Year,Month,Day,Hour,Minute,Value (Times are PST for temperature in C)
2014,08,22,00,00,14.50
2014,08,22,00,01,14.40
2014,08,22,00,02,14.40
2014,08,22,00,03,14.40
2014,08,22,00,04,14.40
2014,08,22,00,05,14.40
2014,08,22,00,06,14.40
2014,08,22,00,07,14.30
2014,08,22,00,08,14.30
2014,08,22,00,09,14.30
2014,08,22,00,10,14.30
2014,08,22,00,11,14.30
2014,08,22,00,12,14.30
2014,08,22,00,13,14.30
2014,08,22,00,14,14.30
2014,08,22,00,15,14.20
2014,08,22,00,16,14.20
2014,08,22,00,17,14.20
2014,08,22,00,18,14.20
2014,08,22,00,19,14.20
2014,08,22,00,20,14.20
2014,08,22,00,21,14.10
2014,08,22,00,22,14.10
2014,08,22,00,23,14.10
2014,08,22,00,24,14.10
2014,08,22,00,25,14.10
2014,08,22,00,26,14.10
2014,08,22,00,27,14.10
2014,08,22,00,28,14.00
2014,08,22,00,29,14.00
2014,08,22,00,30,14.00
2014,08,22,00,31,14.10
2014,08,22,00,32,14.10
2014,08,22,00,33,14.10
2014,08,22,00,34,14.10
2014,08,22,00,35,14.10
2014,08,22,00,36,14.10
2014,08,22,00,37,14.10
2014,08,22,00,38,14.10
2014,08,22,00,39,14.10
2014,08,22,00,40,14.10
2014,08,22,00,41,14.10
2014,08,22,00,42,14.10
2014,08,22,00,43,14.10
2014,08,22,00,44,14.10
2014,08,22,00,45,14.10
2014,08,22,00,46,14.10
2014,08,22,00,47,14.10
2014,08,22,00,48,14.00
2014,08,22,00,49,14.00
2014,08,22,00,50,14.00
2014,08,22,00,51,14.00
2014,08,22,00,52,14.00
2014,08,22,00,53,14.00
2014,08,22,00,54,14.00
2014,08,22,00,55,13.90
2014,08,22,00,56,13.90
2014,08,22,00,57,13.90
2014,08,22,00,58,13.90
2014,08,22,00,59,13.90
2014,08,22,01,00,13.80
2014,08,22,01,01,13.80
2014,08,22,01,02,13.80
2014,08,22,01,03,13.80
2014,08,22,01,04,13.80
2014,08,22,01,05,13.80
2014,08,22,01,06,13.80
2014,08,22,01,07,13.80
2014,08,22,01,08,13.80
2014,08,22,01,09,13.80
2014,08,22,01,10,13.80
2014,08,22,01,11,13.70
2014,08,22,01,12,13.70
2014,08,22,01,13,13.80
2014,08,22,01,14,13.80
2014,08,22,01,15,13.90
2014,08,22,01,16,14.00
2014,08,22,01,17,14.10
2014,08,22,01,18,14.10
2014,08,22,01,19,14.30
2014,08,22,01,20,14.40
2014,08,22,01,21,14.50
2014,08,22,01,22,14.60
2014,08,22,01,23,14.70
2014,08,22,01,24,14.70
2014,08,22,01,25,14.80
2014,08,22,01,26,14.80
2014,08,22,01,27,14.80
2014,08,22,01,28,14.90
2014,08,22,01,29,14.90
2014,08,22,01,30,14.90
2014,08,22,01,31,14.90
2014,08,22,01,32,14.90
2014,08,22,01,33,14.80
2014,08,22,01,34,14.80
2014,08,22,01,35,14.80
2014,08,22,01,36,14.80
2014,08,22,01,37,14.70
2014,08,22,01,38,14.70
2014,08,22,01,39,14.60
2014,08,22,01,40,14.60
2014,08,22,01,41,14.50
2014,08,22,01,42,14.40
2014,08,22,01,43,14.40
2014,08,22,01,44,14.30
2014,08,22,01,45,14.30
2014,08,22,01,46,14.20
2014,08,22,01,47,14.20
2014,08,22,01,48,14.10
2014,08,22,01,49,14.00
2014,08,22,01,50,14.00
2014,08,22,01,51,13.90
2014,08,22,01,52,13.90
2014,08,22,01,53,13.90
2014,08,22,01,54,13.80
2014,08,22,01,55,13.80
2014,08,22,01,56,13.80
2014,08,22,01,57,13.70
2014,08,22,01,58,13.70
2014,08,22,01,59,13.70
2014,08,22,02,00,13.70
2014,08,22,02,01,13.80
2014,08,22,02,02,13.80
2014,08,22,02,03,13.90
2014,08,22,02,04,13.90
2014,08,22,02,05,14.00
2014,08,22,02,06,14.00
2014,08,22,02,07,14.00
2014,08,22,02,08,14.00
2014,08,22,02,09,14.00
2014,08,22,02,10,13.90
2014,08,22,02,11,13.90
2014,08,22,02,12,13.90
2014,08,22,02,13,13.80
2014,08,22,02,14,13.80
2014,08,22,02,15,13.70
2014,08,22,02,16,13.70
2014,08,22,02,17,13.60
2014,08,22,02,18,13.60
2014,08,22,02,19,13.60
2014,08,22,02,20,13.50
2014,08,22,02,21,13.50
2014,08,22,02,22,13.40
2014,08,22,02,23,13.40
2014,08,22,02,24,13.40
2014,08,22,02,25,13.40
2014,08,22,02,26,13.30
2014,08,22,02,27,13.30
2014,08,22,02,28,13.30
2014,08,22,02,29,13.30
2014,08,22,02,30,13.30
2014,08,22,02,31,13.20
2014,08,22,02,32,13.20
2014,08,22,02,33,13.20
2014,08,22,02,34,13.10
2014,08,22,02,35,13.10
2014,08,22,02,36,13.10
2014,08,22,02,37,13.00
2014,08,22,02,38,13.00
2014,08,22,02,39,12.90
2014,08,22,02,40,12.90
2014,08,22,02,41,12.90
2014,08,22,02,42,12.80
2014,08,22,02,43,12.80
2014,08,22,02,44,12.80
2014,08,22,02,45,12.80
2014,08,22,02,46,12.70
2014,08,22,02,47,12.70
2014,08,22,02,48,12.70
2014,08,22,02,49,12.70
2014,08,22,02,50,12.60
2014,08,22,02,51,12.60
2014,08,22,02,52,12.60
2014,08,22,02,53,12.60
2014,08,22,02,54,12.60
2014,08,22,02,55,12.50
2014,08,22,02,56,12.50
2014,08,22,02,57,12.50
2014,08,22,02,58,12.50
2014,08,22,02,59,12.50
2014,08,22,03,00,12.40
2014,08,22,03,01,12.40
2014,08,22,03,02,12.40
2014,08,22,03,03,12.40
2014,08,22,03,04,12.40
2014,08,22,03,05,12.30
2014,08,22,03,06,12.30
2014,08,22,03,07,12.30
2014,08,22,03,08,12.30
2014,08,22,03,09,12.30
2014,08,22,03,10,12.20
2014,08,22,03,11,12.20
2014,08,22,03,12,12.20
2014,08,22,03,13,12.20
2014,08,22,03,14,12.20
2014,08,22,03,15,12.20
2014,08,22,03,16,12.20
2014,08,22,03,17,12.20
2014,08,22,03,18,12.20
2014,08,22,03,19,12.20
2014,08,22,03,20,12.20
2014,08,22,03,21,12.20
2014,08,22,03,22,12.20
2014,08,22,03,23,12.30
2014,08,22,03,24,12.40
2014,08,22,03,25,12.50
2014,08,22,03,26,12.60
2014,08,22,03,27,12.70
2014,08,22,03,28,12.80
2014,08,22,03,29,12.80
2014,08,22,03,30,12.90
2014,08,22,03,31,13.00
2014,08,22,03,32,13.10
2014,08,22,03,33,13.10
2014,08,22,03,34,13.20
2014,08,22,03,35,13.20
2014,08,22,03,36,13.30
2014,08,22,03,37,13.40
2014,08,22,03,38,13.50
2014,08,22,03,39,13.50
2014,08,22,03,40,13.60
2014,08,22,03,41,13.70
2014,08,22,03,42,13.80
2014,08,22,03,43,13.80
2014,08,22,03,44,13.90
2014,08,22,03,45,13.90
2014,08,22,03,46,13.90
2014,08,22,03,47,13.90
2014,08,22,03,48,13.90
2014,08,22,03,49,13.90
2014,08,22,03,50,13.90
2014,08,22,03,51,13.90
2014,08,22,03,52,13.90
2014,08,22,03,53,13.90
2014,08,22,03,54,13.90
2014,08,22,03,55,13.80
2014,08,22,03,56,13.80
2014,08,22,03,57,13.70
2014,08,22,03,58,13.70
2014,08,22,03,59,13.60
2014,08,22,04,00,13.60
2014,08,22,04,01,13.50
2014,08,22,04,02,13.40
2014,08,22,04,03,13.40
2014,08,22,04,04,13.30
2014,08,22,04,05,13.20
2014,08,22,04,06,13.20
2014,08,22,04,07,13.10
2014,08,22,04,08,13.10
2014,08,22,04,09,13.00
2014,08,22,04,10,12.90
2014,08,22,04,11,12.90
2014,08,22,04,12,12.80
2014,08,22,04,13,12.80
2014,08,22,04,14,12.70
2014,08,22,04,15,12.70
2014,08,22,04,16,12.60
2014,08,22,04,17,12.60
2014,08,22,04,18,12.50
2014,08,22,04,19,12.50
2014,08,22,04,20,12.40
2014,08,22,04,21,12.40
2014,08,22,04,22,12.40
2014,08,22,04,23,12.30
2014,08,22,04,24,12.30
2014,08,22,04,25,12.30
2014,08,22,04,26,12.30
2014,08,22,04,27,12.30
2014,08,22,04,28,12.30
2014,08,22,04,29,12.20
2014,08,22,04,30,12.20
2014,08,22,04,31,12.20
2014,08,22,04,32,12.20
2014,08,22,04,33,12.10
2014,08,22,04,34,12.10
2014,08,22,04,35,12.00
2014,08,22,04,36,12.00
2014,08,22,04,37,12.00
2014,08,22,04,38,11.90
2014,08,22,04,39,11.90
2014,08,22,04,40,11.90
2014,08,22,04,41,11.80
2014,08,22,04,42,11.80
2014,08,22,04,43,11.80
2014,08,22,04,44,11.80
2014,08,22,04,45,11.80
2014,08,22,04,46,11.70
2014,08,22,04,47,11.70
2014,08,22,04,48,11.70
2014,08,22,04,49,11.70
2014,08,22,04,50,11.60
2014,08,22,04,51,11.60
2014,08,22,04,52,11.60
2014,08,22,04,53,11.60
2014,08,22,04,54,11.60
2014,08,22,04,55,11.50
2014,08,22,04,56,11.50
2014,08,22,04,57,11.50
2014,08,22,04,58,11.40
2014,08,22,04,59,11.40
2014,08,22,05,00,11.40
2014,08,22,05,01,11.40
2014,08,22,05,02,11.40
2014,08,22,05,03,11.40
2014,08,22,05,04,11.30
2014,08,22,05,05,11.30
2014,08,22,05,06,11.30
2014,08,22,05,07,11.30
2014,08,22,05,08,11.20
2014,08,22,05,09,11.20
2014,08,22,05,10,11.20
2014,08,22,05,11,11.20
2014,08,22,05,12,11.10
2014,08,22,05,13,11.10
2014,08,22,05,14,11.10
2014,08,22,05,15,11.10
2014,08,22,05,16,11.10
2014,08,22,05,17,11.10
2014,08,22,05,18,11.10
2014,08,22,05,19,11.10
2014,08,22,05,20,11.10
2014,08,22,05,21,11.10
2014,08,22,05,22,11.10
2014,08,22,05,23,11.10
2014,08,22,05,24,11.20
2014,08,22,05,25,11.20
2014,08,22,05,26,11.20
2014,08,22,05,27,11.20
2014,08,22,05,28,11.20
2014,08,22,05,29,11.20
2014,08,22,05,30,11.20
2014,08,22,05,31,11.30
2014,08,22,05,32,11.30
2014,08,22,05,33,11.30
2014,08,22,05,34,11.30
2014,08,22,05,35,11.30
2014,08,22,05,36,11.30
2014,08,22,05,37,11.30
2014,08,22,05,38,11.30
2014,08,22,05,39,11.30
2014,08,22,05,40,11.30
2014,08,22,05,41,11.30
2014,08,22,05,42,11.30
2014,08,22,05,43,11.40
2014,08,22,05,44,11.30
2014,08,22,05,45,11.40
2014,08,22,05,46,11.30
2014,08,22,05,47,11.30
2014,08,22,05,48,11.30
2014,08,22,05,49,11.30
2014,08,22,05,50,11.20
2014,08,22,05,51,11.20
2014,08,22,05,52,11.20
2014,08,22,05,53,11.10
2014,08,22,05,54,11.10
2014,08,22,05,55,11.00
2014,08,22,05,56,11.00
2014,08,22,05,57,11.00
2014,08,22,05,58,10.90
2014,08,22,05,59,10.90
2014,08,22,06,00,10.90
2014,08,22,06,01,10.90
2014,08,22,06,02,10.80
2014,08,22,06,03,10.80
2014,08,22,06,04,10.80
2014,08,22,06,05,10.80
2014,08,22,06,06,10.80
2014,08,22,06,07,10.80
2014,08,22,06,08,10.80
2014,08,22,06,09,10.80
2014,08,22,06,10,10.80
2014,08,22,06,11,10.80
2014,08,22,06,12,10.90
2014,08,22,06,13,10.90
2014,08,22,06,14,11.00
2014,08,22,06,15,11.00
2014,08,22,06,16,11.10
2014,08,22,06,17,11.10
2014,08,22,06,18,11.20
2014,08,22,06,19,11.20
2014,08,22,06,20,11.20
2014,08,22,06,21,11.20
2014,08,22,06,22,11.20
2014,08,22,06,23,11.20
2014,08,22,06,24,11.30
2014,08,22,06,25,11.30
2014,08,22,06,26,11.30
2014,08,22,06,27,11.30
2014,08,22,06,28,11.30
2014,08,22,06,29,11.30
2014,08,22,06,30,11.40
2014,08,22,06,31,11.40
2014,08,22,06,32,11.40
2014,08,22,06,33,11.40
2014,08,22,06,34,11.40
2014,08,22,06,35,11.40
2014,08,22,06,36,11.50
2014,08,22,06,37,11.50
2014,08,22,06,38,11.50
2014,08,22,06,39,11.50
2014,08,22,06,40,11.50
2014,08,22,06,41,11.50
2014,08,22,06,42,11.40
2014,08,22,06,43,11.40
2014,08,22,06,44,11.40
2014,08,22,06,45,11.40
2014,08,22,06,46,11.30
2014,08,22,06,47,11.30
2014,08,22,06,48,11.30
2014,08,22,06,49,11.30
2014,08,22,06,50,11.30
2014,08,22,06,51,11.30
2014,08,22,06,52,11.30
2014,08,22,06,53,11.30
2014,08,22,06,54,11.30
2014,08,22,06,55,11.30
2014,08,22,06,56,11.30
2014,08,22,06,57,11.40
2014,08,22,06,58,11.40
2014,08,22,06,59,11.50
2014,08,22,07,00,11.60
2014,08,22,07,01,11.70
2014,08,22,07,02,11.80
2014,08,22,07,03,11.80
2014,08,22,07,04,11.90
2014,08,22,07,05,11.90
2014,08,22,07,06,11.90
2014,08,22,07,07,11.90
2014,08,22,07,08,11.90
2014,08,22,07,09,11.90
2014,08,22,07,10,11.80
2014,08,22,07,11,11.80
2014,08,22,07,12,11.80
2014,08,22,07,13,11.80
2014,08,22,07,14,11.70
2014,08,22,07,15,11.70
2014,08,22,07,16,11.70
2014,08,22,07,17,11.70
2014,08,22,07,18,11.80
2014,08,22,07,19,11.80
2014,08,22,07,20,11.90
2014,08,22,07,21,11.90
2014,08,22,07,22,12.00
2014,08,22,07,23,12.10
2014,08,22,07,24,12.10
2014,08,22,07,25,12.10
2014,08,22,07,26,12.10
2014,08,22,07,27,12.10
2014,08,22,07,28,12.10
2014,08,22,07,29,12.10
2014,08,22,07,30,12.10
2014,08,22,07,31,12.20
2014,08,22,07,32,12.20
2014,08,22,07,33,12.20
2014,08,22,07,34,12.20
2014,08,22,07,35,12.20
2014,08,22,07,36,12.20
2014,08,22,07,37,12.30
2014,08,22,07,38,12.30
2014,08,22,07,39,12.30
2014,08,22,07,40,12.30
2014,08,22,07,41,12.30
2014,08,22,07,42,12.30
2014,08,22,07,43,12.40
2014,08,22,07,44,12.40
2014,08,22,07,45,12.50
2014,08,22,07,46,12.60
2014,08,22,07,47,12.70
2014,08,22,07,48,12.80
2014,08,22,07,49,12.90
2014,08,22,07,50,13.00
2014,08,22,07,51,13.00
2014,08,22,07,52,13.10
2014,08,22,07,53,13.10
2014,08,22,07,54,13.10
2014,08,22,07,55,13.10
2014,08,22,07,56,13.10
2014,08,22,07,57,13.10
2014,08,22,07,58,13.10
2014,08,22,07,59,13.10
2014,08,22,08,00,13.10
2014,08,22,08,01,13.20
2014,08,22,08,02,13.20
2014,08,22,08,03,13.30
2014,08,22,08,04,13.40
2014,08,22,08,05,13.50
2014,08,22,08,06,13.60
2014,08,22,08,07,13.70
2014,08,22,08,08,13.80
2014,08,22,08,09,13.90
2014,08,22,08,10,14.00
2014,08,22,08,11,14.10
2014,08,22,08,12,14.20
2014,08,22,08,13,14.30
2014,08,22,08,14,14.40
2014,08,22,08,15,14.50
2014,08,22,08,16,14.50
2014,08,22,08,17,14.60
2014,08,22,08,18,14.60
2014,08,22,08,19,14.70
2014,08,22,08,20,14.70
2014,08,22,08,21,14.80
2014,08,22,08,22,14.80
2014,08,22,08,23,14.90
2014,08,22,08,24,14.90
2014,08,22,08,25,15.00
2014,08,22,08,26,15.00
2014,08,22,08,27,15.10
2014,08,22,08,28,15.10
2014,08,22,08,29,15.10
2014,08,22,08,30,15.20
2014,08,22,08,31,15.20
2014,08,22,08,32,15.20
2014,08,22,08,33,15.30
2014,08,22,08,34,15.30
2014,08,22,08,35,15.30
2014,08,22,08,36,15.40
2014,08,22,08,37,15.40
2014,08,22,08,38,15.50
2014,08,22,08,39,15.50
2014,08,22,08,40,15.60
2014,08,22,08,41,15.60
2014,08,22,08,42,15.70
2014,08,22,08,43,15.70
2014,08,22,08,44,15.70
2014,08,22,08,45,15.80
2014,08,22,08,46,15.80
2014,08,22,08,47,15.90
2014,08,22,08,48,15.90
2014,08,22,08,49,15.90
2014,08,22,08,50,16.00
2014,08,22,08,51,16.00
2014,08,22,08,52,16.10
2014,08,22,08,53,16.10
2014,08,22,08,54,16.20
2014,08,22,08,55,16.20
2014,08,22,08,56,16.30
2014,08,22,08,57,16.30
2014,08,22,08,58,16.30
2014,08,22,08,59,16.40
2014,08,22,09,00,16.40
2014,08,22,09,01,16.40
2014,08,22,09,02,16.50
2014,08,22,09,03,16.50
2014,08,22,09,04,16.50
2014,08,22,09,05,16.50
2014,08,22,09,06,16.60
2014,08,22,09,07,16.60
2014,08,22,09,08,16.60
2014,08,22,09,09,16.70
2014,08,22,09,10,16.70
2014,08,22,09,11,16.70
2014,08,22,09,12,16.80
2014,08,22,09,13,16.80
2014,08,22,09,14,16.80
2014,08,22,09,15,16.80
2014,08,22,09,16,16.80
2014,08,22,09,17,16.80
2014,08,22,09,18,16.80
2014,08,22,09,19,16.80
2014,08,22,09,20,16.80
2014,08,22,09,21,16.80
2014,08,22,09,22,16.80
2014,08,22,09,23,16.90
2014,08,22,09,24,16.90
2014,08,22,09,25,16.90
2014,08,22,09,26,16.90
2014,08,22,09,27,16.90
2014,08,22,09,28,16.90
2014,08,22,09,29,17.00
2014,08,22,09,30,17.00
2014,08,22,09,31,17.10
2014,08,22,09,32,17.10
2014,08,22,09,33,17.10
2014,08,22,09,34,17.20
2014,08,22,09,35,17.20
2014,08,22,09,36,17.20
2014,08,22,09,37,17.20
2014,08,22,09,38,17.30
2014,08,22,09,39,17.30
2014,08,22,09,40,17.30
2014,08,22,09,41,17.40
2014,08,22,09,42,17.50
2014,08,22,09,43,17.50
2014,08,22,09,44,17.60
2014,08,22,09,45,17.60
2014,08,22,09,46,17.70
2014,08,22,09,47,17.70
2014,08,22,09,48,17.70
2014,08,22,09,49,17.80
2014,08,22,09,50,17.90
2014,08,22,09,51,17.90
2014,08,22,09,52,18.00
2014,08,22,09,53,18.10
2014,08,22,09,54,18.10
2014,08,22,09,55,18.20
2014,08,22,09,56,18.20
2014,08,22,09,57,18.20
2014,08,22,09,58,18.30
2014,08,22,09,59,18.40
2014,08,22,10,00,18.40
2014,08,22,10,01,18.50
2014,08,22,10,02,18.60
2014,08,22,10,03,18.70
2014,08,22,10,04,18.70
2014,08,22,10,05,18.70
2014,08,22,10,06,18.70
2014,08,22,10,07,18.80
2014,08,22,10,08,18.80
2014,08,22,10,09,18.80
2014,08,22,10,10,18.80
2014,08,22,10,11,18.80
2014,08,22,10,12,18.80
2014,08,22,10,13,18.80
2014,08,22,10,14,18.90
2014,08,22,10,15,18.90
2014,08,22,10,16,19.00
2014,08,22,10,17,19.10
2014,08,22,10,18,19.10
2014,08,22,10,19,19.20
2014,08,22,10,20,19.20
2014,08,22,10,21,19.30
2014,08,22,10,22,19.30
2014,08,22,10,23,19.40
2014,08,22,10,24,19.50
2014,08,22,10,25,19.50
2014,08,22,10,26,19.60
2014,08,22,10,27,19.60
2014,08,22,10,28,19.60
2014,08,22,10,29,19.70
2014,08,22,10,30,19.80
2014,08,22,10,31,19.80
2014,08,22,10,32,19.90
2014,08,22,10,33,19.90
2014,08,22,10,34,19.90
2014,08,22,10,35,20.00
2014,08,22,10,36,20.00
2014,08,22,10,37,20.10
2014,08,22,10,38,20.10
2014,08,22,10,39,20.10
2014,08,22,10,40,20.10
2014,08,22,10,41,20.10
2014,08,22,10,42,20.10
2014,08,22,10,43,20.10
2014,08,22,10,44,20.10
2014,08,22,10,45,20.10
2014,08,22,10,46,20.10
2014,08,22,10,47,20.20
2014,08,22,10,48,20.30
2014,08,22,10,49,20.30
2014,08,22,10,50,20.30
2014,08,22,10,51,20.30
2014,08,22,10,52,20.30
2014,08,22,10,53,20.40
2014,08,22,10,54,20.40
2014,08,22,10,55,20.40
2014,08,22,10,56,20.40
2014,08,22,10,57,20.40
2014,08,22,10,58,20.50
2014,08,22,10,59,20.60
2014,08,22,11,00,20.60
2014,08,22,11,01,20.70
2014,08,22,11,02,20.70
2014,08,22,11,03,20.70
2014,08,22,11,04,20.70
2014,08,22,11,05,20.70
2014,08,22,11,06,20.70
2014,08,22,11,07,20.80
2014,08,22,11,08,20.80
2014,08,22,11,09,20.90
2014,08,22,11,10,20.90
2014,08,22,11,11,21.00
2014,08,22,11,12,21.00
2014,08,22,11,13,21.10
2014,08,22,11,14,21.20
2014,08,22,11,15,21.20
2014,08,22,11,16,21.20
2014,08,22,11,17,21.20
2014,08,22,11,18,21.20
2014,08,22,11,19,21.20
2014,08,22,11,20,21.30
2014,08,22,11,21,21.30
2014,08,22,11,22,21.30
2014,08,22,11,23,21.40
2014,08,22,11,24,21.30
2014,08,22,11,25,21.30
2014,08,22,11,26,21.30
2014,08,22,11,27,21.30
2014,08,22,11,28,21.30
2014,08,22,11,29,21.30
2014,08,22,11,30,21.30
2014,08,22,11,31,21.40
2014,08,22,11,32,21.40
2014,08,22,11,33,21.50
2014,08,22,11,34,21.60
2014,08,22,11,35,21.70
2014,08,22,11,36,21.70
2014,08,22,11,37,21.80
2014,08,22,11,38,21.80
2014,08,22,11,39,21.90
2014,08,22,11,40,22.00
2014,08,22,11,41,22.00
2014,08,22,11,42,22.10
2014,08,22,11,43,22.10
2014,08,22,11,44,22.20
2014,08,22,11,45,22.30
2014,08,22,11,46,22.40
2014,08,22,11,47,22.40
2014,08,22,11,48,22.40
2014,08,22,11,49,22.40
2014,08,22,11,50,22.40
2014,08,22,11,51,22.40
2014,08,22,11,52,22.40
2014,08,22,11,53,22.40
2014,08,22,11,54,22.50
2014,08,22,11,55,22.60
2014,08,22,11,56,22.70
2014,08,22,11,57,22.80
2014,08,22,11,58,22.90
2014,08,22,11,59,23.00
2014,08,22,12,00,23.10
2014,08,22,12,01,23.20
2014,08,22,12,02,23.30
2014,08,22,12,03,23.30
2014,08,22,12,04,23.40
2014,08,22,12,05,23.50
2014,08,22,12,06,23.50
2014,08,22,12,07,23.50
2014,08,22,12,08,23.50
2014,08,22,12,09,23.60
2014,08,22,12,10,23.60
2014,08,22,12,11,23.60
2014,08,22,12,12,23.50
2014,08,22,12,13,23.50
2014,08,22,12,14,23.50
2014,08,22,12,15,23.50
2014,08,22,12,16,23.60
2014,08,22,12,17,23.60
2014,08,22,12,18,23.60
2014,08,22,12,19,23.60
2014,08,22,12,20,23.60
2014,08,22,12,21,23.60
2014,08,22,12,22,23.70
2014,08,22,12,23,23.80
2014,08,22,12,24,23.90
2014,08,22,12,25,24.00
2014,08,22,12,26,24.10
2014,08,22,12,27,24.20
2014,08,22,12,28,24.20
2014,08,22,12,29,24.30
2014,08,22,12,30,24.30
2014,08,22,12,31,24.30
2014,08,22,12,32,24.40
2014,08,22,12,33,24.40
2014,08,22,12,34,24.50
2014,08,22,12,35,24.50
2014,08,22,12,36,24.50
2014,08,22,12,37,24.50
2014,08,22,12,38,24.50
2014,08,22,12,39,24.50
2014,08,22,12,40,24.60
2014,08,22,12,41,24.60
2014,08,22,12,42,24.60
2014,08,22,12,43,24.70
2014,08,22,12,44,24.70
2014,08,22,12,45,24.80
2014,08,22,12,46,24.80
2014,08,22,12,47,24.80
2014,08,22,12,48,24.80
2014,08,22,12,49,24.80
2014,08,22,12,50,24.80
2014,08,22,12,51,24.90
2014,08,22,12,52,25.00
2014,08,22,12,53,25.00
2014,08,22,12,54,25.10
2014,08,22,12,55,25.10
2014,08,22,12,56,25.10
2014,08,22,12,57,25.20
2014,08,22,12,58,25.20
2014,08,22,12,59,25.20
2014,08,22,13,00,25.30
2014,08,22,13,01,25.40
2014,08,22,13,02,25.40
2014,08,22,13,03,25.50
2014,08,22,13,04,25.50
2014,08,22,13,05,25.60
2014,08,22,13,06,25.70
2014,08,22,13,07,25.70
2014,08,22,13,08,25.80
2014,08,22,13,09,25.70
2014,08,22,13,10,25.70
2014,08,22,13,11,25.70
2014,08,22,13,12,25.70
2014,08,22,13,13,25.70
2014,08,22,13,14,25.70
2014,08,22,13,15,25.70
2014,08,22,13,16,25.80
2014,08,22,13,17,25.80
2014,08,22,13,18,25.80
2014,08,22,13,19,25.80
2014,08,22,13,20,25.80
2014,08,22,13,21,25.80
2014,08,22,13,22,25.70
2014,08,22,13,23,25.60
2014,08,22,13,24,25.60
2014,08,22,13,25,25.50
2014,08,22,13,26,25.50
2014,08,22,13,27,25.50
2014,08,22,13,28,25.60
2014,08,22,13,29,25.60
2014,08,22,13,30,25.60
2014,08,22,13,31,25.60
2014,08,22,13,32,25.60
2014,08,22,13,33,25.50
2014,08,22,13,34,25.50
2014,08,22,13,35,25.50
2014,08,22,13,36,25.60
2014,08,22,13,37,25.60
2014,08,22,13,38,25.70
2014,08,22,13,39,25.70
2014,08,22,13,40,25.70
2014,08,22,13,41,25.70
2014,08,22,13,42,25.70
2014,08,22,13,43,25.70
2014,08,22,13,44,25.70
2014,08,22,13,45,25.80
2014,08,22,13,46,25.80
2014,08,22,13,47,25.90
2014,08,22,13,48,26.00
2014,08,22,13,49,26.00
2014,08,22,13,50,26.10
2014,08,22,13,51,26.20
2014,08,22,13,52,26.30
2014,08,22,13,53,26.40
2014,08,22,13,54,26.50
2014,08,22,13,55,26.60
2014,08,22,13,56,26.70
2014,08,22,13,57,26.80
2014,08,22,13,58,26.90
2014,08,22,13,59,26.90
2014,08,22,14,00,27.00
2014,08,22,14,01,27.00
2014,08,22,14,02,26.90
2014,08,22,14,03,26.90
2014,08,22,14,04,26.80
2014,08,22,14,05,26.70
2014,08,22,14,06,26.70
2014,08,22,14,07,26.70
2014,08,22,14,08,26.70
2014,08,22,14,09,26.70
2014,08,22,14,10,26.80
2014,08,22,14,11,26.80
2014,08,22,14,12,26.90
2014,08,22,14,13,27.00
2014,08,22,14,14,27.00
2014,08,22,14,15,27.10
2014,08,22,14,16,27.10
2014,08,22,14,17,27.20
2014,08,22,14,18,27.20
2014,08,22,14,19,27.20
2014,08,22,14,20,27.30
2014,08,22,14,21,27.20
2014,08,22,14,22,27.20
2014,08,22,14,23,27.20
2014,08,22,14,24,27.20
2014,08,22,14,25,27.30
2014,08,22,14,26,27.30
2014,08,22,14,27,27.40
2014,08,22,14,28,27.40
2014,08,22,14,29,27.40
2014,08,22,14,30,27.40
2014,08,22,14,31,27.40
2014,08,22,14,32,27.50
2014,08,22,14,33,27.50
2014,08,22,14,34,27.50
2014,08,22,14,35,27.60
2014,08,22,14,36,27.60
2014,08,22,14,37,27.60
2014,08,22,14,38,27.60
2014,08,22,14,39,27.60
2014,08,22,14,40,27.70
2014,08,22,14,41,27.70
2014,08,22,14,42,27.70
2014,08,22,14,43,27.70
2014,08,22,14,44,27.70
2014,08,22,14,45,27.60
2014,08,22,14,46,27.50
2014,08,22,14,47,27.30
2014,08,22,14,48,27.20
2014,08,22,14,49,27.10
2014,08,22,14,50,27.00
2014,08,22,14,51,27.00
2014,08,22,14,52,26.90
2014,08,22,14,53,26.90
2014,08,22,14,54,26.90
2014,08,22,14,55,27.00
2014,08,22,14,56,27.00
2014,08,22,14,57,27.10
2014,08,22,14,58,27.10
2014,08,22,14,59,27.20
2014,08,22,15,00,27.30
2014,08,22,15,01,27.30
2014,08,22,15,02,27.30
2014,08,22,15,03,27.40
2014,08,22,15,04,27.50
2014,08,22,15,05,27.50
2014,08,22,15,06,27.60
2014,08,22,15,07,27.60
2014,08,22,15,08,27.70
2014,08,22,15,09,27.80
2014,08,22,15,10,27.80
2014,08,22,15,11,27.90
2014,08,22,15,12,27.90
2014,08,22,15,13,27.90
2014,08,22,15,14,27.90
2014,08,22,15,15,27.90
2014,08,22,15,16,27.90
2014,08,22,15,17,28.00
2014,08,22,15,18,28.00
2014,08,22,15,19,28.10
2014,08,22,15,20,28.10
2014,08,22,15,21,28.10
2014,08,22,15,22,28.10
2014,08,22,15,23,28.10
2014,08,22,15,24,28.10
2014,08,22,15,25,28.10
2014,08,22,15,26,28.20
2014,08,22,15,27,28.20
2014,08,22,15,28,28.20
2014,08,22,15,29,28.30
2014,08,22,15,30,28.30
2014,08,22,15,31,28.30
2014,08,22,15,32,28.30
2014,08,22,15,33,28.40
2014,08,22,15,34,28.40
2014,08,22,15,35,28.40
2014,08,22,15,36,28.50
2014,08,22,15,37,28.50
2014,08,22,15,38,28.50
2014,08,22,15,39,28.60
2014,08,22,15,40,28.60
2014,08,22,15,41,28.70
2014,08,22,15,42,28.80
2014,08,22,15,43,28.80
2014,08,22,15,44,28.90
2014,08,22,15,45,28.90
2014,08,22,15,46,29.00
2014,08,22,15,47,29.00
2014,08,22,15,48,29.00
2014,08,22,15,49,29.10
2014,08,22,15,50,29.10
2014,08,22,15,51,29.10
2014,08,22,15,52,29.20
2014,08,22,15,53,29.20
2014,08,22,15,54,29.20
2014,08,22,15,55,29.30
2014,08,22,15,56,29.30
2014,08,22,15,57,29.30
2014,08,22,15,58,29.30
2014,08,22,15,59,29.30
2014,08,22,16,00,29.30
2014,08,22,16,01,29.30
2014,08,22,16,02,29.30
2014,08,22,16,03,29.30
2014,08,22,16,04,29.30
2014,08,22,16,05,29.30
2014,08,22,16,06,29.30
2014,08,22,16,07,29.40
2014,08,22,16,08,29.40
2014,08,22,16,09,29.40
2014,08,22,16,10,29.40
2014,08,22,16,11,29.40
2014,08,22,16,12,29.40
2014,08,22,16,13,29.40
2014,08,22,16,14,29.40
2014,08,22,16,15,29.40
2014,08,22,16,16,29.40
2014,08,22,16,17,29.40
2014,08,22,16,18,29.40
2014,08,22,16,19,29.40
2014,08,22,16,20,29.40
2014,08,22,16,21,29.50
2014,08,22,16,22,29.50
2014,08,22,16,23,29.60
2014,08,22,16,24,29.60
2014,08,22,16,25,29.70
2014,08,22,16,26,29.70
2014,08,22,16,27,29.70
2014,08,22,16,28,29.60
2014,08,22,16,29,29.60
2014,08,22,16,30,29.50
2014,08,22,16,31,29.50
2014,08,22,16,32,29.40
2014,08,22,16,33,29.40
2014,08,22,16,34,29.40
2014,08,22,16,35,29.50
2014,08,22,16,36,29.50
2014,08,22,16,37,29.50
2014,08,22,16,38,29.50
2014,08,22,16,39,29.50
2014,08,22,16,40,29.40
2014,08,22,16,41,29.40
2014,08,22,16,42,29.40
2014,08,22,16,43,29.40
2014,08,22,16,44,29.40
2014,08,22,16,45,29.50
2014,08,22,16,46,29.50
2014,08,22,16,47,29.50
2014,08,22,16,48,29.50
2014,08,22,16,49,29.40
2014,08,22,16,50,29.30
2014,08,22,16,51,29.30
2014,08,22,16,52,29.30
2014,08,22,16,53,29.30
2014,08,22,16,54,29.30
2014,08,22,16,55,29.30
2014,08,22,16,56,29.30
2014,08,22,16,57,29.30
2014,08,22,16,58,29.30
2014,08,22,16,59,29.30
2014,08,22,17,00,29.30
2014,08,22,17,01,29.30
2014,08,22,17,02,29.30
2014,08,22,17,03,29.30
2014,08,22,17,04,29.20
2014,08,22,17,05,29.20
2014,08,22,17,06,29.20
2014,08,22,17,07,29.10
2014,08,22,17,08,29.10
2014,08,22,17,09,29.10
2014,08,22,17,10,29.10
2014,08,22,17,11,29.10
2014,08,22,17,12,29.10
2014,08,22,17,13,29.10
2014,08,22,17,14,29.10
2014,08,22,17,15,29.10
2014,08,22,17,16,29.10
2014,08,22,17,17,29.00
2014,08,22,17,18,29.00
2014,08,22,17,19,29.00